St. Charles, IL

6:07 PM CDT on April 26, 2017 (GMT -0500)
Saint Charles County Smartt

Weather History for KSET - November, 2013

Change the Weather History Date:

Sunday, November 3, 2013

  Actual Average (KSTL) Record (KSTL)
Temperature  
Mean Temperature 44 °F -  
Max Temperature 57 °F 57 °F 82 °F (1987)
Min Temperature 30 °F 40 °F 16 °F (1951)
Degree Days  
Heating Degree Days 22    
Moisture  
Dew Point 33 °F    
Average Humidity 81    
Maximum Humidity 100    
Minimum Humidity 39    
Precipitation  
Precipitation 0.00 in - - ()
Sea Level Pressure  
Sea Level Pressure 30.23 in    
Wind  
Wind Speed 2 mph (SE)    
Max Wind Speed 16 mph    
Max Gust Speed 23 mph    
Visibility 5 miles    
Events Fog    
Averages and records for this station are not official NWS values.
T = Trace of Precipitation, MM = Missing Value Source: NWS Daily Summary

Daily Weather History Graph

Daily Weather History Graph

Search for Another Location

Airport or City:

Trip Planner

Search our weather history database for the weather conditions in past years. The results will help you decide how hot, cold, wet, or windy it might be!

Date:

Astronomy

Nov. 03, 2013 Rise Set
Actual Time 6:31 AM CST 4:58 PM CST
Civil Twilight 6:03 AM CST 5:26 PM CST
Nautical Twilight 5:32 AM CST 5:57 PM CST
Astronomical Twilight 5:00 AM CST 6:29 PM CST
Moon 6:35 AM CST (11/3) 5:13 PM CST (11/3)
Length of Visible Light 11h 22m
Length of Day
10h 27m
New Moon, 0% of the Moon is Illuminated
Nov 3
New Moon
Nov 9
First Quarter
Nov 17
Full
Nov 25
Last Quarter
Dec 2
New

Hourly Weather History & Observations

Time (CST) Temp. Windchill Dew Point Humidity Pressure Visibility Wind Dir Wind Speed Gust Speed Precip Events Conditions
12:54 AM 34.0 °F - 32.0 °F 92% 30.20 in 6.0 mi Calm Calm - N/A   Clear
1:21 AM 34.0 °F - 33.1 °F 96% 30.21 in 2.5 mi Calm Calm - N/A   Partly Cloudy
1:23 AM 34.0 °F - 33.1 °F 96% 30.21 in 1.0 mi Calm Calm - N/A   Mist
1:30 AM 34.0 °F - 32.0 °F 92% 30.21 in 0.5 mi Calm Calm - N/A Fog Fog
1:54 AM 34.0 °F - 32.0 °F 92% 30.22 in 0.5 mi Calm Calm - N/A Fog Fog
1:10 AM 34.0 °F - 33.1 °F 96% 30.22 in 1.2 mi Calm Calm - N/A   Scattered Clouds
1:18 AM 34.0 °F - 32.0 °F 92% 30.22 in 2.0 mi Calm Calm - N/A   Mostly Cloudy
1:33 AM 33.1 °F - 32.0 °F 96% 30.22 in 3.0 mi Calm Calm - N/A   Mostly Cloudy
1:45 AM 32.0 °F - 30.9 °F 96% 30.22 in 2.5 mi Calm Calm - N/A   Scattered Clouds
1:48 AM 33.8 °F - 32.0 °F 93% 30.22 in 1.0 mi Calm Calm - N/A   Mist
1:54 AM 32.0 °F - 30.9 °F 96% 30.23 in 1.2 mi Calm Calm - N/A   Partly Cloudy
1:57 AM 32.0 °F - 30.9 °F 96% 30.22 in 3.0 mi Calm Calm - N/A   Partly Cloudy
2:19 AM 32.0 °F - 30.0 °F 92% 30.22 in 1.5 mi Calm Calm - N/A   Scattered Clouds
2:23 AM 33.1 °F - 30.0 °F 89% 30.22 in 0.8 mi Calm Calm - N/A   Mist
2:35 AM 33.1 °F - 30.9 °F 92% 30.23 in 1.8 mi Calm Calm - N/A   Mostly Cloudy
2:37 AM 33.1 °F - 30.9 °F 92% 30.23 in 3.0 mi Calm Calm - N/A   Mostly Cloudy
2:54 AM 32.0 °F - 30.0 °F 92% 30.24 in 4.0 mi Calm Calm - N/A   Overcast
2:58 AM 32.0 °F - 30.9 °F 96% 30.23 in 1.8 mi Calm Calm - N/A   Overcast
3:15 AM 32.0 °F - 30.0 °F 92% 30.23 in 0.2 mi Calm Calm - N/A Fog Fog
3:54 AM 32.0 °F - 30.9 °F 96% 30.24 in 0.2 mi Calm Calm - N/A Fog Fog
4:54 AM 30.0 °F - 30.0 °F 100% 30.26 in 0.2 mi Calm Calm - N/A Fog Light Freezing Fog
5:54 AM 30.0 °F 26.5 °F 30.0 °F 100% 30.26 in 0.2 mi ESE 3.5 mph - N/A Fog Light Freezing Fog
6:54 AM 30.0 °F - 28.9 °F 96% 30.28 in 0.2 mi Calm Calm - N/A Fog Light Freezing Fog
7:54 AM 34.0 °F - 34.0 °F 100% 30.31 in 0.2 mi Calm Calm - N/A Fog Fog
8:14 AM 37.9 °F - 37.9 °F 100% 30.30 in 2.0 mi Calm Calm - N/A   Scattered Clouds
8:23 AM 39.0 °F - 37.9 °F 96% 30.30 in 4.0 mi Calm Calm - N/A   Partly Cloudy
8:54 AM 41.0 °F - 39.9 °F 96% 30.31 in 7.0 mi Calm Calm - N/A   Clear
9:54 AM 48.0 °F - 39.9 °F 74% 30.31 in 10.0 mi SE 4.6 mph - N/A   Clear
10:54 AM 53.1 °F - 37.9 °F 57% 30.29 in 10.0 mi Variable 4.6 mph - N/A   Clear
11:54 AM 55.9 °F - 33.1 °F 42% 30.25 in 10.0 mi SSE 13.8 mph - N/A   Clear
12:54 PM 55.9 °F - 32.0 °F 40% 30.21 in 10.0 mi South 16.1 mph - N/A   Clear
1:54 PM 57.0 °F - 32.0 °F 39% 30.19 in 10.0 mi SSE 12.7 mph 23.0 mph N/A   Clear
2:54 PM 57.9 °F - 33.1 °F 39% 30.19 in 10.0 mi SSE 10.4 mph - N/A   Clear
3:54 PM 55.0 °F - 34.0 °F 45% 30.16 in 10.0 mi SE 12.7 mph - N/A   Clear
4:54 PM 53.1 °F - 34.0 °F 48% 30.17 in 10.0 mi SSE 11.5 mph - N/A   Clear
5:54 PM 48.9 °F - 34.0 °F 56% 30.17 in 10.0 mi ESE 9.2 mph - N/A   Clear
6:54 PM 48.9 °F - 34.0 °F 56% 30.18 in 10.0 mi ESE 9.2 mph - N/A   Clear
7:54 PM 46.9 °F - 35.1 °F 63% 30.17 in 10.0 mi SE 9.2 mph - N/A   Clear
8:54 PM 46.9 °F - 35.1 °F 63% 30.17 in 10.0 mi SE 10.4 mph - N/A   Clear
9:54 PM 44.1 °F 38.6 °F 37.0 °F 76% 30.16 in 10.0 mi East 10.4 mph - N/A   Clear
10:54 PM 45.0 °F 41.8 °F 37.0 °F 74% 30.17 in 10.0 mi East 5.8 mph - N/A   Clear